Weather History for Warrensburg, MO

Change the Weather History Date:

Friday, May 24, 2013

  Actual Average (KSZL) Record (KSZL)
Temperature  
Mean Temperature 14 °C -  
Max Temperature 22 °C 23 °C 30 °C (2000)
Min Temperature 8 °C 12 °C 6 °C (2001)
Degree Days  
Heating Degree Days 6    
Growing Degree Days 8 (Base 50)    
Moisture  
Dew Point 8 °C    
Average Humidity 66    
Maximum Humidity 100    
Minimum Humidity 38    
Precipitation  
Precipitation 0.00 mm - - ()
Sea Level Pressure  
Sea Level Pressure 1025 hPa    
Wind  
Wind Speed 8 km/h (ESE)    
Max Wind Speed 26 km/h    
Max Gust Speed 35 km/h    
Visibility 15 kilometers    
Events      
Averages and records for this station are not official NWS values.
T = Trace of Precipitation, MM = Missing Value Source: NWS Daily Summary

Daily Weather History Graph

Daily Weather History Graph

Search for Another Location

Airport:

Trip Planner

Search our weather history database for the weather conditions in past years. The results will help you decide how hot, cold, wet, or windy it might be!

Date:

Astronomy

May. 24, 2013 Rise Set
Actual Time 5:55 AM CDT 8:28 PM CDT
Civil Twilight 5:25 AM CDT 8:59 PM CDT
Nautical Twilight 4:47 AM CDT 9:37 PM CDT
Astronomical Twilight 4:04 AM CDT 10:20 PM CDT
Moon 8:11 PM CDT (5/24) 5:28 AM CDT (5/24)
Length of Visible Light 15h 34m
Length of Day
14h 32m
Full, 100% of the Moon is Illuminated
May 24
Full
May 24
Full
May 31
Last Quarter
Jun 8
New
Jun 16
First Quarter

Hourly Weather History & Observations

Time (CDT) Temp. Windchill Dew Point Humidity Pressure Visibility Wind Dir Wind Speed Gust Speed Precip Events Conditions
12:15 AM 12.0 °C - 10.0 °C 88% 1023.2 hPa 16.1 km Calm Calm - N/A   Clear
12:35 AM 11.0 °C - 10.0 °C 94% 1023.2 hPa 16.1 km Calm Calm - N/A   Clear
12:55 AM 11.0 °C - 10.0 °C 94% 1023.6 hPa 16.1 km Calm Calm - N/A   Clear
1:15 AM 11.0 °C - 10.0 °C 94% 1023.6 hPa 16.1 km Calm Calm - N/A   Clear
1:35 AM 11.0 °C - 10.0 °C 94% 1023.9 hPa 16.1 km Calm Calm - N/A   Clear
1:55 AM 10.0 °C - 9.0 °C 94% 1023.9 hPa 11.3 km Calm Calm - N/A   Clear
2:15 AM 11.0 °C - 10.0 °C 94% 1024.3 hPa 11.3 km Calm Calm - N/A   Clear
2:35 AM 10.0 °C - 10.0 °C 100% 1024.3 hPa 11.3 km Calm Calm - N/A   Clear
2:55 AM 10.0 °C - 8.0 °C 87% 1024.3 hPa 6.4 km Calm Calm - N/A   Clear
3:15 AM 10.0 °C - 8.0 °C 87% 1024.3 hPa 8.0 km Calm Calm - N/A   Clear
3:35 AM 9.0 °C - 8.0 °C 93% 1024.9 hPa 6.4 km Calm Calm - N/A   Clear
3:55 AM 10.0 °C - 9.0 °C 94% 1024.9 hPa 11.3 km Calm Calm - N/A   Clear
4:15 AM 10.0 °C - 9.0 °C 94% 1025.3 hPa 11.3 km Calm Calm - N/A   Scattered Clouds
4:35 AM 8.0 °C - 8.0 °C 100% 1025.3 hPa 8.0 km Calm Calm - N/A   Mostly Cloudy
4:55 AM 8.0 °C - 8.0 °C 100% 1025.3 hPa 11.3 km Calm Calm - N/A   Scattered Clouds
5:15 AM 9.0 °C - 8.0 °C 93% 1026.0 hPa 11.3 km Calm Calm - N/A   Scattered Clouds
5:35 AM 8.0 °C - 7.0 °C 93% 1026.0 hPa 6.4 km Calm Calm - N/A   Mostly Cloudy
5:55 AM 8.0 °C - 7.0 °C 93% 1026.3 hPa 3.2 km Calm Calm - N/A   Mostly Cloudy
6:15 AM 8.0 °C 7.3 °C 7.0 °C 93% 1026.3 hPa 11.3 km ESE 5.6 km/h / 1.5 m/s - N/A   Scattered Clouds
6:35 AM 8.0 °C - 7.0 °C 93% 1027.0 hPa 11.3 km Calm Calm - N/A   Clear
6:55 AM 10.0 °C - 8.0 °C 87% 1027.0 hPa 11.3 km Calm Calm - N/A   Clear
7:35 AM 12.0 °C - 11.0 °C 94% 1027.0 hPa 16.1 km ESE 5.6 km/h / 1.5 m/s - N/A   Clear
7:55 AM 13.0 °C - 12.0 °C 94% 1027.3 hPa 16.1 km East 13.0 km/h / 3.6 m/s - N/A   Scattered Clouds
8:15 AM 13.0 °C - 11.0 °C 88% 1027.7 hPa 16.1 km SE 13.0 km/h / 3.6 m/s - N/A   Scattered Clouds
8:35 AM 15.0 °C - 11.0 °C 77% 1027.7 hPa 16.1 km ESE 14.8 km/h / 4.1 m/s - N/A   Clear
8:55 AM 15.0 °C - 11.0 °C 77% 1027.7 hPa 16.1 km ESE 18.5 km/h / 5.1 m/s 31.5 km/h / 8.7 m/s N/A   Clear
9:15 AM 15.0 °C - 10.0 °C 72% 1028.3 hPa 16.1 km ESE 20.4 km/h / 5.7 m/s - N/A   Clear
9:35 AM 16.0 °C - 10.0 °C 68% 1027.7 hPa 16.1 km ESE 22.2 km/h / 6.2 m/s - N/A   Scattered Clouds
9:55 AM 16.0 °C - 10.0 °C 68% 1027.7 hPa 16.1 km ESE 20.4 km/h / 5.7 m/s 27.8 km/h / 7.7 m/s N/A   Clear
10:15 AM 16.0 °C - 9.0 °C 63% 1027.7 hPa 16.1 km ESE 22.2 km/h / 6.2 m/s 29.6 km/h / 8.2 m/s N/A   Scattered Clouds
10:35 AM 17.0 °C - 8.0 °C 55% 1027.7 hPa 16.1 km ESE 24.1 km/h / 6.7 m/s 35.2 km/h / 9.8 m/s N/A   Scattered Clouds
10:55 AM 17.0 °C - 8.0 °C 55% 1027.7 hPa 16.1 km East 22.2 km/h / 6.2 m/s 29.6 km/h / 8.2 m/s N/A   Clear
11:15 AM 17.0 °C - 9.0 °C 59% 1027.7 hPa 16.1 km East 24.1 km/h / 6.7 m/s 29.6 km/h / 8.2 m/s N/A   Clear
11:35 AM 17.0 °C - 9.0 °C 59% 1027.7 hPa 16.1 km ESE 22.2 km/h / 6.2 m/s 29.6 km/h / 8.2 m/s N/A   Clear
11:55 AM 18.0 °C - 9.0 °C 56% 1027.3 hPa 16.1 km ESE 20.4 km/h / 5.7 m/s 27.8 km/h / 7.7 m/s N/A   Clear
12:15 PM 18.0 °C - 9.0 °C 56% 1027.0 hPa 16.1 km East 22.2 km/h / 6.2 m/s 29.6 km/h / 8.2 m/s N/A   Clear
12:35 PM 18.0 °C - 8.0 °C 52% 1026.6 hPa 16.1 km East 25.9 km/h / 7.2 m/s 31.5 km/h / 8.7 m/s N/A   Clear
12:55 PM 18.0 °C - 8.0 °C 52% 1026.0 hPa 16.1 km ESE 24.1 km/h / 6.7 m/s 29.6 km/h / 8.2 m/s N/A   Clear
1:15 PM 19.0 °C - 8.0 °C 49% 1026.0 hPa 16.1 km ESE 14.8 km/h / 4.1 m/s 31.5 km/h / 8.7 m/s N/A   Clear
1:35 PM 19.0 °C - 8.0 °C 49% 1026.0 hPa 16.1 km ESE 20.4 km/h / 5.7 m/s 27.8 km/h / 7.7 m/s N/A   Clear
1:55 PM 20.0 °C - 8.0 °C 46% 1025.6 hPa 16.1 km East 20.4 km/h / 5.7 m/s 35.2 km/h / 9.8 m/s N/A   Clear
2:15 PM 20.0 °C - 8.0 °C 46% 1025.3 hPa 16.1 km ESE 22.2 km/h / 6.2 m/s 35.2 km/h / 9.8 m/s N/A   Clear
2:35 PM 20.0 °C - 8.0 °C 46% 1025.3 hPa 16.1 km ESE 18.5 km/h / 5.1 m/s 27.8 km/h / 7.7 m/s N/A   Clear
2:55 PM 20.0 °C - 7.0 °C 43% 1025.3 hPa 16.1 km ESE 18.5 km/h / 5.1 m/s 27.8 km/h / 7.7 m/s N/A   Clear
3:15 PM 21.0 °C - 7.0 °C 40% 1025.3 hPa 16.1 km ESE 22.2 km/h / 6.2 m/s 27.8 km/h / 7.7 m/s N/A   Clear
3:35 PM 21.0 °C - 7.0 °C 40% 1024.9 hPa 16.1 km ESE 13.0 km/h / 3.6 m/s - N/A   Clear
3:55 PM 21.0 °C - 6.0 °C 38% 1024.6 hPa 16.1 km SE 22.2 km/h / 6.2 m/s 27.8 km/h / 7.7 m/s N/A   Clear
4:15 PM 21.0 °C - 6.0 °C 38% 1024.3 hPa 16.1 km ESE 14.8 km/h / 4.1 m/s - N/A   Clear
4:35 PM 21.0 °C - 6.0 °C 38% 1023.9 hPa 16.1 km East 18.5 km/h / 5.1 m/s 25.9 km/h / 7.2 m/s N/A   Clear
4:55 PM 22.0 °C - 7.0 °C 38% 1023.6 hPa 16.1 km East 9.3 km/h / 2.6 m/s - N/A   Clear
5:15 PM 21.0 °C - 6.0 °C 38% 1023.2 hPa 16.1 km ESE 13.0 km/h / 3.6 m/s - N/A   Clear
5:35 PM 21.0 °C - 6.0 °C 38% 1023.2 hPa 16.1 km ESE 14.8 km/h / 4.1 m/s - N/A   Clear
5:55 PM 21.0 °C - 6.0 °C 38% 1022.9 hPa 16.1 km ESE 14.8 km/h / 4.1 m/s - N/A   Clear
6:15 PM 21.0 °C - 6.0 °C 38% 1022.6 hPa 16.1 km East 16.7 km/h / 4.6 m/s - N/A   Clear
6:35 PM 21.0 °C - 7.0 °C 40% 1021.9 hPa 16.1 km ESE 13.0 km/h / 3.6 m/s - N/A   Clear
6:55 PM 21.0 °C - 7.0 °C 40% 1021.9 hPa 16.1 km East 14.8 km/h / 4.1 m/s - N/A   Clear
7:15 PM 20.0 °C - 7.0 °C 43% 1021.9 hPa 16.1 km ESE 11.1 km/h / 3.1 m/s - N/A   Clear
7:35 PM 20.0 °C - 7.0 °C 43% 1021.9 hPa 16.1 km ESE 9.3 km/h / 2.6 m/s - N/A   Clear
7:55 PM 18.0 °C - 7.0 °C 49% 1021.9 hPa 16.1 km ESE 9.3 km/h / 2.6 m/s - N/A   Clear
8:15 PM 18.0 °C - 8.0 °C 52% 1021.9 hPa 16.1 km East 7.4 km/h / 2.1 m/s - N/A   Clear
8:35 PM 17.0 °C - 8.0 °C 55% 1022.2 hPa 16.1 km East 7.4 km/h / 2.1 m/s - N/A   Clear
8:55 PM 17.0 °C - 8.0 °C 55% 1021.9 hPa 16.1 km East 7.4 km/h / 2.1 m/s - N/A   Clear
9:15 PM 16.0 °C - 8.0 °C 59% 1022.2 hPa 16.1 km East 11.1 km/h / 3.1 m/s - N/A   Clear
9:35 PM 16.0 °C - 8.0 °C 59% 1021.9 hPa 16.1 km East 11.1 km/h / 3.1 m/s - N/A   Clear
9:55 PM 16.0 °C - 7.0 °C 55% 1021.9 hPa 16.1 km East 14.8 km/h / 4.1 m/s - N/A   Clear
10:15 PM 16.0 °C - 7.0 °C 55% 1022.2 hPa 16.1 km East 13.0 km/h / 3.6 m/s - N/A   Clear
10:35 PM 16.0 °C - 7.0 °C 55% 1022.6 hPa 16.1 km ESE 11.1 km/h / 3.1 m/s - N/A   Clear
10:55 PM 16.0 °C - 7.0 °C 55% 1022.6 hPa 16.1 km ESE 11.1 km/h / 3.1 m/s - N/A   Clear
11:15 PM 15.0 °C - 7.0 °C 59% 1022.6 hPa 16.1 km ESE 9.3 km/h / 2.6 m/s - N/A   Clear
11:35 PM 15.0 °C - 7.0 °C 59% 1022.6 hPa 16.1 km ESE 11.1 km/h / 3.1 m/s - N/A   Clear
11:55 PM 15.0 °C - 7.0 °C 59% 1022.2 hPa 16.1 km ESE 13.0 km/h / 3.6 m/s - N/A   Clear